Weather History for The Dalles, OR

Change the Weather History Date:

Saturday, April 26, 2014

  Actual Average Record
Temperature  
Mean Temperature 53 °F -  
Max Temperature 61 °F 67 °F 84 °F (2013)
Min Temperature 45 °F 42 °F 31 °F (1970)
Degree Days  
Heating Degree Days 12    
Growing Degree Days 3 (Base 50)    
Moisture  
Dew Point 35 °F    
Average Humidity 55    
Maximum Humidity 77    
Minimum Humidity 34    
Precipitation  
Precipitation 0.00 in - - ()
Sea Level Pressure  
Sea Level Pressure 29.79 in    
Wind  
Wind Speed 14 mph (NW)    
Max Wind Speed 21 mph    
Max Gust Speed 28 mph    
Visibility 10 miles    
Events      
Averages and records for this station are not official NWS values.
T = Trace of Precipitation, MM = Missing Value Source: NWS Daily Summary

Daily Weather History Graph

Daily Weather History Graph

Search for Another Location

Airport:

Trip Planner

Search our weather history database for the weather conditions in past years. The results will help you decide how hot, cold, wet, or windy it might be!

Date:

Astronomy

Apr. 26, 2014 Rise Set
Actual Time 6:00 AM PDT 8:05 PM PDT
Civil Twilight 5:27 AM PDT 8:37 PM PDT
Nautical Twilight 4:48 AM PDT 9:17 PM PDT
Astronomical Twilight 4:04 AM PDT 10:02 PM PDT
Moon 4:36 AM PDT (4/26) 5:32 PM PDT (4/26)
Length of Visible Light 15h 09m
Length of Day
14h 05m
Waning Crescent, 7% of the Moon is Illuminated
Apr 26
Waning Crescent
Apr 28
New
May 6
First Quarter
May 14
Full
May 21
Last Quarter

Hourly Weather History & Observations

Time (PDT) Temp. Windchill Dew Point Humidity Pressure Visibility Wind Dir Wind Speed Gust Speed Precip Events Conditions
12:53 AM 48.9 °F - 35.1 °F 59% 29.83 in 10.0 mi West 17.3 mph 27.6 mph N/A   Clear
1:53 AM 46.0 °F 40.6 °F 37.0 °F 71% 29.82 in 10.0 mi NNW 11.5 mph - N/A   Clear
2:53 AM 45.0 °F 38.9 °F 37.0 °F 74% 29.82 in 10.0 mi NW 12.7 mph - N/A   Clear
3:53 AM 46.9 °F - 35.1 °F 63% 29.82 in 10.0 mi WNW 15.0 mph - N/A   Partly Cloudy
4:53 AM 45.0 °F 39.7 °F 35.1 °F 68% 29.83 in 10.0 mi West 10.4 mph - N/A   Clear
5:53 AM 45.0 °F 38.9 °F 35.1 °F 68% 29.84 in 10.0 mi West 12.7 mph - N/A   Clear
6:53 AM 46.0 °F 40.6 °F 34.0 °F 63% 29.85 in 10.0 mi West 11.5 mph - N/A   Clear
7:53 AM 48.0 °F - 35.1 °F 61% 29.85 in 10.0 mi WNW 13.8 mph - N/A   Clear
8:53 AM 50.0 °F - 34.0 °F 54% 29.84 in 10.0 mi WNW 19.6 mph - N/A   Clear
9:53 AM 52.0 °F - 35.1 °F 53% 29.83 in 10.0 mi NW 19.6 mph 25.3 mph N/A   Clear
10:53 AM 54.0 °F - 35.1 °F 49% 29.83 in 10.0 mi NNW 15.0 mph - N/A   Clear
11:53 AM 57.9 °F - 35.1 °F 42% 29.81 in 10.0 mi WNW 15.0 mph 24.2 mph N/A   Clear
12:53 PM 57.0 °F - 34.0 °F 42% 29.80 in 10.0 mi NW 19.6 mph 26.5 mph N/A   Clear
1:53 PM 57.9 °F - 34.0 °F 41% 29.79 in 10.0 mi NNW 20.7 mph - N/A   Clear
2:53 PM 60.1 °F - 33.1 °F 36% 29.77 in 10.0 mi NW 16.1 mph 25.3 mph N/A   Clear
3:53 PM 59.0 °F - 30.9 °F 35% 29.76 in 10.0 mi NW 20.7 mph 26.5 mph N/A   Partly Cloudy
4:53 PM 61.0 °F - 32.0 °F 34% 29.75 in 10.0 mi WNW 13.8 mph 25.3 mph N/A   Clear
5:53 PM 59.0 °F - 32.0 °F 36% 29.74 in 10.0 mi NW 15.0 mph - N/A   Partly Cloudy
6:53 PM 55.9 °F - 34.0 °F 44% 29.73 in 10.0 mi NW 9.2 mph - N/A   Clear
7:53 PM 54.0 °F - 36.0 °F 51% 29.73 in 10.0 mi NW 10.4 mph - N/A   Mostly Cloudy
8:53 PM 52.0 °F - 37.0 °F 57% 29.74 in 10.0 mi NW 11.5 mph - N/A   Overcast
9:53 PM 51.1 °F - 37.9 °F 61% 29.75 in 10.0 mi West 3.5 mph - N/A   Overcast
10:53 PM 48.9 °F - 41.0 °F 74% 29.73 in 10.0 mi NNW 11.5 mph - 0.00 in   Overcast
11:53 PM 48.0 °F - 41.0 °F 77% 29.73 in 10.0 mi NW 5.8 mph - N/A   Mostly Cloudy